User: anonymous   Login
Location: Unspecified
(0.0000°N, 0.0000°E)
Time: 13:00:20
(UTC+00:00)
Language:

ISS - Orbit

View from above orbital plane
View from above orbital plane
View from above satellite
View from above satellite

Ground track
Ground track

The orbit data is extracted from the following two-line orbital elements,

1 25544U 98067A   15144.17660392  .00010300  00000-0  15657-3 0  9990
2 25544 051.6438 203.9140 0003779 334.9047 055.8907 15.55177100944300
Epoch (UTC): 24 May 2015 04:14:18
Eccentricity: 0.0003779
inclination: 51.6438°
perigee height: 399 km
apogee height: 404 km
right ascension of ascending node: 203.9140°
argument of perigee: 334.9047°
revolutions per day: 15.55177100
mean anomaly at epoch: 55.8907°
orbit number at epoch: 94430

The dashed part of the orbit path shows where the satellite is in the earth's shadow,  

DLR